Lynchburg, VA (24504)

1:25 AM EST on January 26, 2015 (GMT -0500)
Concord Turnpike | Change Station
CLOSE
Current Station
Personal Weather Station
Location: Lynchburg, VA
Elevation: 515 ft
Nearby Weather Stations

Elev 515 ft 37.40 °N, 79.11 °W | Updated 1 minute ago

Overcast
Overcast
40.6 °F
Feels Like 41 °F
N
0.3
Wind Variable Wind from NE
Gusts 2.0 mph

Today
High -- | Low -- °F
--% Chance of Precip.
Yesterday
High -- | Low -- °F
Precip. -- in
7:24 AM 5:33 PM
Waxing Crescent, 40% visible
Pressure 29.75 in
Visibility 10.0 miles
Clouds Overcast 8500 ft
Windchill 41 °F
Dew Point 34 °F
Humidity 78%
Rainfall 0.00 in
Snow Depth Not available.
UV 0 out of 12
Pollen 1.40 out of 12
Air Quality Not available.
Flu Activity Not available.
METAR KLYH 260554Z AUTO 00000KT 10SM OVC085 06/01 A2974 RMK AO2 SLP072 T00560006 10078 20050 58015

More Conditions Fewer Conditions

Pressure 29.75 in
Visibility 10.0 miles
Clouds Overcast 8500 ft
Windchill 41 °F
Dew Point 34 °F
Humidity 78%
Rainfall 0.00 in
Snow Depth Not available.
UV 0 out of 12
Pollen 1.40 out of 12
Air Quality Not available.
Flu Activity Not available.
METAR KLYH 260554Z AUTO 00000KT 10SM OVC085 06/01 A2974 RMK AO2 SLP072 T00560006 10078 20050 58015

More Conditions Fewer Conditions

10-Day Weather Forecast

Almanac

Astronomy

Jan. 26, 2015 Rise Set
Actual Time
Civil Twilight
Nautical Twilight
Astronomical Twilight
Moon
Length of Visible Light
Length of Day
Tomorrow will be .
, % of the Moon is Illuminated

Today's Extremes

State Highs State Lows

Community

WunderPhotos

Upload Photos

1,790,157 photos uploaded!

WunderBlogs® & News

Nearby

Air Quality

  Air Quality AQ Index Pollutant
Not available.

Snow Depth

Station Depth Elevation

Earthquake Activity

City Distance Mag. Time & Date
Minimum magnitude displayed is 2.5.

Coastal Water Temperatures

Place Temperature

Nearby Weather Stations